Regional Weather Roundup
Issued by NWS

Home | Current Version | Previous Version | Text Only | Print | Product List | Glossary On
Versions: 1 2 3 4 5 6 7 8 9 10 11 12 13 14 15 16 17 18 19 20 21 22 23 24 25 26 27 28 29 30 31 32 33 34 35 36 37 38 39 40 41 42 43 44 45 46 47 48 49 50
000
ASUS43 KMPX 050701
RWRMN
WEATHER ROUNDUP FOR MINNESOTA
NATIONAL WEATHER SERVICE TWIN CITIES/CHANHASSEN MN
200 AM CDT SUN JUL 05 2015


NOTE: "FAIR" INDICATES FEW OR NO CLOUDS BELOW 12,000 FEET WITH NO
SIGNIFICANT WEATHER AND/OR OBSTRUCTIONS TO VISIBILITY. N/A MEANS
CURRENT SKY AND/OR WEATHER CONDITIONS ARE NOT AVAILABLE.

MNZ060>063-068>070-050800-
   Twin Cities Metro

CITY           SKY/WX    TMP DP  RH WIND       PRES   REMARKS
TWIN CITIES    FAIR      71  60  68 S12       29.93F
CRYSTAL        FAIR      71  60  68 S8        29.90F
BLAINE         FAIR      70  63  78 SE6       29.92S
LAKEVILLE      FAIR      63  61  94 S5        29.94F
EDEN PRAIRIE   FAIR      68  60  75 S8        29.91F
SOUTH ST PAUL  FAIR      67  61  80 S3        29.93F HAZE
LAKE ELMO      FAIR      68  61  77 S9        29.94F
$$
MNZ001>005-007-008-013>017-022>024-027-028-050800-
   Northwest Minnesota

CITY           SKY/WX    TMP DP  RH WIND       PRES   REMARKS
BEMIDJI        FAIR      71  64  80 S8        29.81F
HALLOCK        FAIR      66  64  94 E13       29.75R
ROSEAU         TSTM      63  57  82 NW3       29.84R
WARROAD        RAIN      64  61  88 W3        29.83R
THIEF RVR FALL MOCLDY    66  63  88 N18G30    29.86R THUNDER
CROOKSTON      CLOUDY    66  64  94 N12G24    29.84R
FOSSTON        FAIR      70  63  78 S5        29.81R
DETROIT LAKES  FAIR      72  63  73 S8        29.84S
MOORHEAD       FAIR      72  64  78 S8        29.80R
PARK RAPIDS    FAIR      70  63  78 SE7       29.85S HAZE
MAHNOMEN       FAIR      71  64  79 S7        29.80F
$$
MNZ006-009>011-018-025>026-050800-
   North Central Minnesota

CITY           SKY/WX    TMP DP  RH WIND       PRES   REMARKS
BAUDETTE       FAIR      63  60  90 SE6       29.82F
INTL FALLS     FAIR      64  61  90 VRB5      29.82F
WASKISH        LGT RAIN  66  61  82 NE7G16    29.85R
BIG FORK       FAIR      64  63  94 SE5       29.87S FOG
LONGVILLE      FAIR      70  64  83 S6        29.87R FOG
GRAND RAPIDS   FAIR      63  59  88 SE3       29.90R
CRANE LAKE     FAIR      64  57  77 NW10G16   29.91R
ORR            FAIR      63  55  77 CALM      29.87S
COOK           FAIR      63  57  82 CALM      29.89F
WALKER         FAIR      71  64  81 S8        29.84F
$$
MNZ012-019>021-037-050800-
   Northeast Minnesota

CITY           SKY/WX    TMP DP  RH WIND       PRES   REMARKS
DULUTH         FAIR      57  54  89 E7        29.92S
ELY            FAIR      61  54  77 CALM      29.91R
HIBBING        FAIR      57  55  93 CALM      29.90R
DULUTH HARBOR  FAIR      61  57  88 NE7       29.91F
TWO HARBORS    FAIR      57  54  88 N1        29.91S
SILVER BAY     FAIR      55  54  94 CALM      29.90S
GRAND MARAIS     N/A     53  50  89 CALM      29.90F
G MARAIS ARPRT FAIR      57  50  77 E3        29.94F
$$
MNZ029>031-032-039>041-046>048-054>057-064-050800-
   West Central Minnesota

CITY           SKY/WX    TMP DP  RH WIND       PRES   REMARKS
FERGUS FALLS   FAIR      70  64  83 S9        29.82R
WHEATON        FAIR      70  63  78 SE10      29.82F
MORRIS         FAIR      70  64  83 S9        29.84S HAZE
ALEXANDRIA     FAIR      69  64  84 S10       29.88R
ELBOW LAKE     FAIR      68  64  88 S10       29.84S
WADENA         FAIR      66  63  88 S6        29.86R HAZE
GLENWOOD       FAIR      66  63  88 S7        29.89R
APPLETON       FAIR      72  63  73 S8        29.84R
BENSON         FAIR      68  63  83 S7        29.87R
ORTONVILLE     FAIR      68  63  83 SE7       29.84R
MADISON        FAIR      70  63  78 SE8       29.84S
WILLMAR        FAIR      68  63  83 S3        29.90R
$$
MNZ033>034-036-042>043-049>051-058-059-050800-
   Central Minnesota

CITY           SKY/WX    TMP DP  RH WIND       PRES   REMARKS
ST CLOUD       FAIR      68  62  81 S9        29.88F
SAUK CENTRE    FAIR      64  63  94 CALM      29.89R FOG
PAYNESVILLE    FAIR      65  61  86 SE5       29.91R
AITKIN         FAIR      72  64  78 S8        29.87R
PINE RIVER     FAIR      68  64  88 SE5       29.91R
BRAINERD       FAIR      69  63  81 S9        29.89R HAZE
STAPLES        FAIR      66  63  88 S7        29.86S
LONG PRAIRIE   FAIR      64  63  94 S6        29.90R
LITTLE FALLS   FAIR      68  61  77 S6        29.89R
LITCHFIELD     FAIR      70  64  83 S5        29.90S
BUFFALO        FAIR      68  60  75 S6        29.91S
MAPLE LAKE     FAIR      67  63  85 S5        29.91R
$$
MNZ037-044-045-052-053-050800-
   East Central Minnesota

CITY           SKY/WX    TMP DP  RH WIND       PRES   REMARKS
PRINCETON      FAIR      70  63  78 S7        29.90S
MORA           FAIR      68  61  77 S5        29.91S
CAMBRIDGE      FAIR      72  59  64 CALM      29.89S
RUSH CITY      FAIR      67  63  88 S5        29.91S
MOOSE LAKE     MOCLDY    57  55  94 NE3       29.89R FOG
HINCKLEY       FAIR      68  64  88 S5        29.90F
CLOQUET        CLOUDY    57  55  94 E5        29.92R FOG
MCGREGOR       FAIR      64  63  94 SE5       29.88S
$$
MNZ071>073-080-081-089-090-097-098-050800-
   Southwest Minnesota

CITY           SKY/WX    TMP DP  RH WIND       PRES   REMARKS
MONTEVIDEO     FAIR      70  63  78 S8        29.87R
GRANITE FALLS  FAIR      67  62  82 SE8       29.89R
CANBY          FAIR      70  63  80 SE7       29.86R
MARSHALL       FAIR      68  59  73 S10       29.86S
REDWOOD FALLS  FAIR      66  60  81 S13       29.89S
OLIVIA         FAIR      63  57  82 SE7       29.89R
PIPESTONE      FAIR      68  63  83 S12       29.90S
WINDOM         FAIR      66  61  82 S6        29.93R
WORTHINGTON    FAIR      66  57  72 S13       29.92F
JACKSON        FAIR      64  61  88 S8        29.95S
TRACY          FAIR      68  62  79 S14       29.89S
SLAYTON        FAIR      66  62  86 CALM      29.92S
$$
MNZ065>067-074>077-082>085-091>093-050800-
   South Central Minnesota

CITY           SKY/WX    TMP DP  RH WIND       PRES   REMARKS
MANKATO        FAIR      64  57  77 S8        29.93F
NEW ULM        FAIR      64  61  88 S8        29.92R
ST JAMES       FAIR      66  61  82 S10       29.93S
FAIRMONT       FAIR      63  55  77 S8        29.94S
GLENCOE        FAIR      66  62  86 SE3       29.91S
FARIBAULT      FAIR      66  61  82 S5        29.95F
OWATONNA       FAIR      66  59  77 S12       29.96F
WASECA         FAIR      63  57  82 SE8       29.96F
ALBERT LEA     FAIR      66  61  82 S8        29.97F
$$
MNZ078>079-086>088-094>096-050800-
   Southeast Minnesota

CITY           SKY/WX    TMP DP  RH WIND       PRES   REMARKS
ROCHESTER      FAIR      61  58  90 S8        30.01F
RED WING       FAIR      68  61  77 CALM      29.95F
DODGE CENTER   FAIR      64  61  88 S8        29.98F
WINONA         FAIR      66  63  88 CALM      30.00S
AUSTIN         FAIR      64  61  88 S5        29.99F
PRESTON        FAIR      63  59  85 S6        30.02F
$$
ABBREVIATIONS USED IN REMARKS
   TC - TEMPERATURES IN CELSIUS
  WCI - WIND CHILL INDEX
   HX - HEAT INDEX
  VSB - VISIBILITY
$$



USA.gov is the U.S. government's official web portal to all federal, state and local government web resources and services.